Hlavní strana
METAR-TAF:

METAR-TAF

Letiště :

Shelby, Severní Karolína, Spojené státy americké

zeměpisná šířka: 35-15N, zeměpisná délka: 081-36W, výška: 258 m

Aktuální stav počasí

Zpráva byla vytvořena před 25 minutami, v 17:35 UTC
Severoseverovýchodní vítr 9 kt
Teplota 9°C
Vlhkost vzduchu 43%
Tlak 1021 hPa
Viditelnost: 16.1 km
Zataženo ve výšce 11000 ft

METAR: KEHO 151735Z AUTO 03009KT 10SM OVC110 09/M03 A3015 RMK AO2 T00891035

Čas: 13:00 (18:00 UTC)


TAF: chybějící

Stav a předpovědi počasí z více než 4 000 letišť (zprávy METAR a TAF).

Červené a žluté tečky na mapě představují dostupné meteorologické stanice.

Když kurzor umístíte na tečku, zobrazí se název stanice.

Pak kliknutím zobrazíte stav a předpověď počasí.

Chcete-li změnit mapu, kliknutím na zelené tlačítko se znaménkem +mapu přiblížíte, kliknutím na zelené tlačítko se znaménkem – mapu oddálíte a kliknutím na zelené šipky přejdete na sousední mapy.


METAR-TAF: